2018-046H

Last updated on Mon Aug 13 2018 01:15:07 GMT+0100 (British Summer Time)

1 43561U 18046H 18224.61799203 .00001126 00000-0 53796-4 0 9996 2 43561 51.6439 102.8596 0009706 61.8281 298.3692 15.27763867 3697
UTC large
Height (km)
Speed (km/s)
/
Latitude / Longitude
Inclination (degrees)
Orbital Period (minutes)
Azimuth
Elevation
Range (km)
Doppler Factor

Next 0 passes for location: London (51.5072 / 0.1276)

Sorry there are no passes over London.